Regional Weather Roundup
Issued by NWS Upton, NY

Current Version | Previous Version | Text Only | Print | Product List | Glossary Off
Versions: 1 2 3 4 5 6 7 8 9 10 11 12 13 14 15 16 17 18 19 20 21 22 23 24 25 26 27 28 29 30 31 32 33 34 35 36 37 38 39 40 41 42 43 44 45 46 47 48 49 50

000
ASUS41 KOKX 190007
RWROKX

REGIONAL WEATHER ROUNDUP
NATIONAL WEATHER SERVICE NEW YORK NY
800 PM EDT SAT APR 18 2015

NOTE: "FAIR" INDICATES FEW OR NO CLOUDS BELOW 12,000 FEET WITH NO
SIGNIFICANT WEATHER AND/OR OBSTRUCTIONS TO VISIBILITY.

NYZ071-072-176-178-NJZ106-104-190100-
NEW YORK CITY METRO AREA


CITY           SKY/WX    TMP DP  RH WIND       PRES   REMARKS
CENTRAL PARK   CLEAR     75  40  28 VRB7      29.92R
LAGUARDIA APRT PTCLDY    66  44  45 CALM      29.89R
KENNEDY INTL   PTCLDY    57  44  62 S8        29.90R
NEWARK/LIBERTY MOCLDY    78  38  23 W10       29.88R
BRNX BOT. GARD   N/A     66  43  42 W2        29.94R
TETERBORO      CLEAR     78  34  20 N18G24    29.89R
$$

NYZ177-179-078>081-190100-
LONG ISLAND NEW YORK

CITY           SKY/WX    TMP DP  RH WIND       PRES   REMARKS
FARMINGDALE    CLEAR     60  42  51 W8        29.91R
ISLIP          PTCLDY    60  42  51 W12       29.90R
SHIRLEY        NOT AVBL
WESTHAMPTON    PTCLDY    57  41  55 SW13      29.91R
MONTAUK POINT    N/A     59  42  53 SW15G25   29.89R
$$

NYZ052-065-067-190100-
HUDSON VALLEY

CITY           SKY/WX    TMP DP  RH WIND       PRES   REMARKS
WHITE PLAINS   CLEAR     72  28  19 NW21G33   29.91R
NEWBURGH       CLEAR     68  32  26 N14G28    29.97R
MONTGOMERY     CLEAR     68  31  25 N12       29.97R
POUGHKEEPSIE   CLEAR     71  31  22 NW10G17   29.94R
ALBANY         CLEAR     64  23  21 NW15G21   30.00R
$$

NJZ001-105-106-008-010-013-015-019>022-104-190100-
NEW JERSEY

CITY           SKY/WX    TMP DP  RH WIND       PRES   REMARKS
NEWARK/LIBERTY MOCLDY    78  38  23 W10       29.88R
TETERBORO      CLEAR     78  34  20 N18G24    29.89R
CALDWELL       CLEAR     76  35  22 N8G22     29.91R
MORRISTOWN     CLEAR     75  36  23 N8        29.91R
SOMERVILLE     PTCLDY    73  39  29 CALM      29.88R
SUSSEX         CLEAR     71  37  28 N14G21    29.97R
ANDOVER          N/A     72  39  30 N10G22    29.95R
TRENTON        PTCLDY    75  38  26 W6        29.91R
MILLVILLE      MOCLDY    64  47  53 SW5       29.95S
ATLANTIC CITY  PTCLDY    65  47  52 S7        29.95R
WRIGHTSTOWN    PTCLDY    69  43  39 SW6       29.89R
TOMS RIVER     PTCLDY    64  46  52 S6        29.93S
BELMAR         PTCLDY    70  45  40 S9        29.92R
$$

PAZ047>061-062-071-190100-
EASTERN PENNSYLVANIA

CITY           SKY/WX    TMP DP  RH WIND       PRES   REMARKS
PHILADELPHIA   MOCLDY    73  42  32 SW13      29.93S
ALLENTOWN      PTCLDY    73  39  29 NW8       29.92R
SCRANTON       CLEAR     65  34  31 N16       30.01R
$$

CTZ002-004>006-009-010-012-RIZ004-006-007-MAZ004-011-015-190100-
SOUTHERN NEW ENGLAND
 IN CT

CITY           SKY/WX    TMP DP  RH WIND       PRES   REMARKS
BRADLEY INTL   CLEAR     68  27  21 N18G35    29.93R
HARTFORD       CLEAR     69  26  20 N23G36    29.92R
DANBURY        CLEAR     72  26  18 NW16G26   29.94R
WTRBRY/OXFORD  PTCLDY    66  30  26 N23G35    29.93R
BRIDGEPORT     CLEAR     63  44  50 SW8       29.90R
MERIDEN        CLEAR     70  30  22 N15G25    29.92R
NEW HAVEN      PTCLDY    60  44  55 W7        29.91R
CHESTER        FAIR      64  43  45 W7        29.90R
GROTON         CLEAR     59  42  53 W6        29.90R
WILLIMANTIC    CLEAR     70  31  23 NW16G28   29.91R

 IN RI

CITY           SKY/WX    TMP DP  RH WIND       PRES   REMARKS
PROVIDENCE     PTCLDY    60  41  49 N18G29    29.94R
BLOCK ISLAND   CLEAR     50  41  71 W14G21    29.89R
WESTERLY       CLEAR     59  43  55 W7        29.90R

 IN MA

CITY           SKY/WX    TMP DP  RH WIND       PRES   REMARKS
BOSTON         PTCLDY    47  40  76 E5        29.96R
WORCESTER      CLEAR     59  36  42 N9        29.95R
WESTFIELD      CLEAR     65  28  24 NW8       29.94R
PROVINCETOWN   PTCLDY    43  37  81 NE13G18   29.94R
NANTUCKET      PTCLDY    48  42  80 SW12      29.86S
$$

ANZ330-335-338-340-345-350-353-355-190100-
COASTAL MARINE OBSERVATIONS


STATION/POSITION TIME  SKY/WX   TEMP    WIND        PRES    VSBY  WAVE
                                AIR SEA DIR/SP/G                  HT/PER
                 (UTC)          (F)     (DEG/KT/KT) (MB)    (MI)  (FT/S)
NY HARB ENTRANCE 2350            54 46  210/ 17/ 21 1011.7          3/ 7
4S FIRE IS       2303               45                N/A           4/ 3
20S FIRE ISLAND  2250               45              1012.5          3/ 7
23SW MTP         NOT AVBL
HUDSON CANYON    NOT AVBL
EXECUTION ROCKS  NOT AVBL
WESTERN LI SOUND NOT AVBL
CENTRAL LI SOUND NOT AVBL
EASTERN LI SOUND 2300            53     230/ 12/ 14   N/A
ROBBINS REEF     2300            79     280/ 16/ 19 1009.9
$$


>>>>>>>>>>>>>>>>>>>>>>>>>>>> KEY <<<<<<<<<<<<<<<<<<<<<<<<<<<
>                                                          <
>     SKY/WX - SKY CONDITION/PRESENT WEATHER               <
>     TMP    - TEMPERATURE IN FAHRENHEIT                   <
>     DP     - DEWPOINT IN FAHRENHEIT                      <
>     RH     - RELATIVE HUMIDITY IN PERCENT                <
>     WIND   - DIRECTION AND SPEED IN MPH                  <
>     PRES   - MEAN SEA LEVEL PRESSURE IN INCHES OF HG     <
>     WCI    - WIND CHILL INDEX                            <
>     VSB    - VISIBILITY IN MILES                         <
>     HX     - HEAT INDEX                                  <
>     TC     - TEMPERATURE IN CELSIUS                      <
>     VRB    - VARIABLE WIND DIRECTION                     <
>                                                          <
>>>>>>>>>>>>>>>>>>>>>>>>>>>> KEY <<<<<<<<<<<<<<<<<<<<<<<<<<<




USA.gov is the U.S. government's official web portal to all federal, state and local government web resources and services.